This is the latest recevied weather packets stored in our database for station/object WB4ZUT. If no packets are shown the sender has not sent any weather packets the latest 10 day(s).
| Time | Temp. | Humidity | Pressure | Rain* | Wind** | Luminosity | Snow |
|---|---|---|---|---|---|---|---|
| 1778175143 | 17.22° C | 37% | 1016.8 hPa | 0 mm | - | 720 W/m² | - |
| 1778174840 | 17.22° C | 41% | 1016.5 hPa | 0 mm | - | 713 W/m² | - |
| 1778174537 | 17.22° C | 44% | 1016.7 hPa | 0 mm | - | 726 W/m² | - |
| 1778174237 | 17.22° C | 45% | 1016.7 hPa | 0 mm | - | 756 W/m² | - |
| 1778173935 | 17.22° C | 41% | 1016.8 hPa | 0 mm | - | 756 W/m² | - |
| 1778173631 | 16.67° C | 40% | 1017 hPa | 0 mm | - | 745 W/m² | - |
| 1778173328 | 16.67° C | 38% | 1017 hPa | 0 mm | - | 741 W/m² | - |
| 1778173024 | 16.67° C | 40% | 1017.2 hPa | 0 mm | - | 727 W/m² | - |
| 1778172720 | 17.22° C | 37% | 1017.1 hPa | 0 mm | - | 768 W/m² | - |
| 1778172416 | 17.22° C | 35% | 1016.9 hPa | 0 mm | - | 803 W/m² | - |
| 1778172114 | 17.22° C | 38% | 1016.9 hPa | 0 mm | - | 797 W/m² | - |
| 1778171810 | 16.67° C | 39% | 1017.2 hPa | 0 mm | - | 783 W/m² | - |
| 1778171509 | 16.67° C | 40% | 1017.4 hPa | 0 mm | - | 811 W/m² | - |
| 1778171204 | 16.67° C | 43% | 1017.2 hPa | 0 mm | - | 839 W/m² | - |
| 1778170901 | 16.67° C | 43% | 1017.4 hPa | 0 mm | - | 863 W/m² | - |
| 1778170597 | 16.67° C | 37% | 1017.4 hPa | 0 mm | - | 849 W/m² | - |
| 1778170293 | 17.22° C | 41% | 1017.3 hPa | 0 mm | - | 833 W/m² | - |
| 1778169990 | 17.22° C | 39% | 1017.4 hPa | 0 mm | - | 811 W/m² | - |
| 1778169687 | 17.22° C | 35% | 1017.2 hPa | 0 mm | - | 833 W/m² | - |
| 1778169382 | 16.67° C | 39% | 1017.4 hPa | 0 mm | - | 842 W/m² | - |
| 1778169079 | 16.67° C | 38% | 1017.5 hPa | 0 mm | - | 828 W/m² | - |
| 1778168776 | 16.67° C | 37% | 1017.5 hPa | 0 mm | - | 810 W/m² | - |
| 1778168473 | 16.11° C | 39% | 1017.4 hPa | 0 mm | - | 801 W/m² | - |
| 1778168169 | 16.67° C | 36% | 1017.5 hPa | 0 mm | - | 818 W/m² | - |
| 1778167866 | 16.67° C | 44% | 1017.4 hPa | 0 mm | - | 805 W/m² | - |
* Rain latest hour (hover to see other rain measurements)
** Current wind speed in m/s (hover to see current wind gust speed)